C/1998 M4 (LINEAR) 

T 1997 Dec. 10.42485 TT                                 Nakano

q   2.6017074            (2000.0)            P               Q

                   Peri.  106.36404     +0.87981004     -0.20533859

                   Node    92.91512     -0.38154582     -0.84294524

e   1.0            Incl.  154.58067     +0.28347323     -0.49727194

From 104 observations 1998 June 25-Sept. 4.

Residuals in seconds of arc 

1998/                     980627 540  0.5+  0.0     980702 360  0.5-  0.0   

980625 704  1.2+  0.9+    980627 046  1.0-  0.2+    980703 367  0.4+  0.4+  

980625 704  1.2+  0.9+    980627 046  1.3-  0.4-    980703 367  0.3+  0.0   

980625 704  1.3+  0.6+    980627 046  0.0   0.4+    980703 367  0.4+  0.5+  

980625 704 (2.9+  0.9+)   980627 046  0.5-  0.3-    980703 402  0.2+  0.2-  

980625 704  0.6-  0.5-    980627 046  0.9-  0.1+    980703 402  0.2+  0.3-  

980626 426  1.0-  0.5-    980627 104  1.3-  0.0     980703 402  0.2+  0.2-  

980626 426  1.1-  0.8-    980627 104  0.9-  0.4+    980703 352  0.6+  0.7+  

980626 426  0.7-  0.6-    980627 504  0.4+  0.1-    980703 867  0.6+  0.3+  

980626 426  0.4-  0.5-    980628 504  0.2+  0.0     980703 352  0.1-  0.3-  

980626 596  0.3+  0.1+    980628 504  1.0+  0.1+    980703 867  0.1+  0.0   

980626 596  0.6+  0.9+    980628 504  0.8+  0.1-    980703 867  0.1+  0.2+  

980626 104  0.8-  0.2-    980628 504  0.8+  0.3-    980703 360  0.2-  0.3-  

980626 104  0.2-  0.4-    980628 504  0.0   0.0     980703 360  0.4-  0.1-  

980626 104  0.6-  1.0-    980628 504  0.2+  0.2+    980703 360  0.0   0.2-  

980626 104  1.1-  0.8-    980628 504  0.6+  0.3+    980705 860  0.9+  1.6-  

980626 596  0.2-  0.6+    980629 120  0.2+  0.2+    980705 860  0.2-  1.5+  

980627 468  1.9+  1.5-    980629 120  0.4+  0.5+    980705 860 (1.5-  2.1+) 

980627 468 (3.3+  1.3+)   980629 120  1.1+  1.7+    980705 402  0.1-  0.3-  

980627 709 (0.0   2.1-)   980629 120  1.4+  0.4+    980705 402  0.1+  0.4-  

980627 709  0.2+  0.6+    980629 120  1.5+  0.6+    980705 402  0.3-  0.8-  

980627 709  0.4-  0.1-    980629 120  1.5+  1.7+    980714 046  0.3-  0.1-  

980627 709 (1.4-  3.9-)   980630 402  0.6+  0.3+    980714 046  0.2-  0.5+  

980627 709  0.5-  0.1+    980630 402  0.9-  0.2-    980714 046  0.8+  0.1-  

980627 734  0.1+  0.8+    980630 402  0.2+  0.3+    980714 046  0.1-  0.2+  

980627 734  0.5+  0.2+    980630 402  0.6+  0.0     980714 046  0.4-  0.1+  

980627 734  0.8-  0.4-    980630 402  0.3-  0.9+    980718 402  0.6-  0.2-  

980627 711  0.5-  0.4-    980702 658  0.4-  0.1-    980718 402  0.2-  0.1-  

980627 711  0.6-  0.4-    980702 658  0.6-  0.2-    980718 402  0.1-  0.2-  

980627 711  0.7-  0.5-    980702 658  0.7-  0.3-    980719 540  1.7+  1.0+  

980627 426  0.0   0.7-    980702 402  0.9-  0.0     980719 540 (3.0-  0.1+) 

980627 426  0.6-  0.8-    980702 402  0.3-  0.3+    980722 402  0.3-  0.5+  

980627 426  0.3-  0.9-    980702 402  0.5-  0.2+    980722 402  0.8-  0.9+  

980627 121  1.2+  1.3-    980702 355  0.6+  0.2+    980722 402  1.4-  1.2+  

980627 121  0.4+  0.9-    980702 355  0.6+  0.1-    980904 402  0.1-  0.3-  

980627 121  0.3-  1.5-    980702 355  0.2-  0.0     980904 402  0.6+  1.6-  

980627 540 (0.1-  2.8-)   980702 360  0.5-  0.2+    

980627 540  0.3-  0.8+    980702 360  0.3-  0.0     









–ß‚è‚Ü‚·B